User: anonymous   Login
Location: Unspecified
(0.0000°N, 0.0000°E)
Time: 21:07:04
(UTC+00:00)
Language:

STARLINK-36053 - Orbit

View from above orbital plane
View from above orbital plane
View from above satellite
View from above satellite

Ground track
Ground track

The orbit is defined by the following mean orbital elements,

1 66875U          26145.36634664 +.00000000 +00000-0 +10026-2 0 00002
2 66875  42.9969 270.3149 0001150 284.8845  75.1879 15.27592050    08
Epoch (UTC): 25 May 2026 08:47:32
Eccentricity: 0.0001150
inclination: 42.9969°
perigee height: 482 km
apogee height: 484 km
right ascension of ascending node: 270.3149°
argument of perigee: 284.8845°
revolutions per day: 15.27592050
mean anomaly at epoch: 75.1879°

The dashed part of the orbit path shows where the satellite is in the earth's shadow,  

DLR